Regional Weather Roundup
Issued by NWS Kansas City/Pleasant Hill, MO

Home | Current Version | Previous Version | Text Only | Print | Product List | Glossary On
Versions: 1 2 3 4 5 6 7 8 9 10 11 12 13 14 15 16 17 18 19 20 21 22 23 24 25 26 27 28 29 30 31 32 33 34 35 36 37 38 39 40 41 42 43 44 45 46 47 48 49
000
ASUS43 KEAX 022310
RWREAX

WEATHER ROUNDUP FOR EASTERN KANSAS AND NORTHWEST MISSOURI
NATIONAL WEATHER SERVICE KANSAS CITY/PLEASANT HILL MO
600 PM CDT SUN AUG 02 2015

KSZ040-057-103>105-MOZ028-029-037-043-030000-
...KANSAS CITY METROPOLITAN AREA...

CITY           SKY/WX    TMP DP  RH WIND       PRES   REMARKS
K.C. INTL      MOSUNNY   89  72  56 SW7       29.85S HX  96
K.C. DOWNTOWN  SUNNY     93  68  43 W8        29.83F HX  97
LEES SUMMIT    SUNNY     92  65  40 SW10      29.85F HX  94
OLATHE - IXD   SUNNY     93  68  43 SW12      29.86F HX  97
OLATHE - OJC   SUNNY     91  66  43 SW10      29.85F HX  93
LAWRENCE       SUNNY     91  69  48 SW7       29.84F HX  96

$$

MOZ001>008-011>017-020>025-030>033-038>040-044>046-053-054-030000-
...NORTHERN AND CENTRAL MISSOURI...

CITY           SKY/WX    TMP DP  RH WIND       PRES   REMARKS
ST. JOSEPH       N/A     89  74  60 SW8       29.83F HX  98
MOSBY          CLEAR     91  66  43 W3        29.84S HX  94
WARRENSBURG    SUNNY     91  63  38 SW9       29.85F HX  92
WHITEMAN AFB   SUNNY     92  67  43 SW12      29.85F HX  96
CLINTON        SUNNY     91  70  49 SW7       29.88S HX  97
SEDALIA        SUNNY     90  67  46 SW9       29.88F HX  93
WARSAW         NOT AVBL
CHILLICOTHE      N/A     90  71  53 SW8       29.83F HX  96
KIRKSVILLE     SUNNY     88  71  57 SW7       29.83F HX  94

$$

MOZ041-047>049-056>058-063>065-088>090-097-030000-
...EASTERN AND SOUTHERN MISSOURI...

CITY           SKY/WX    TMP DP  RH WIND       PRES   REMARKS
ST. LOUIS INTL PTSUNNY   93  68  43 W12       29.86F HX  97
SPIRIT OF STL  SUNNY     91  70  49 W7        29.85S HX  96
COLUMBIA       SUNNY     88  70  55 SW14      29.88F HX  93
JEFFERSON CITY MOSUNNY   91  65  41 SW14      29.85F HX  93
ROLLA          SUNNY     89  66  46 W8        29.90S HX  91
OSAGE BEACH    SUNNY     91  66  43 SW5       29.89F HX  94
SPRINGFIELD    MOSUNNY   90  63  40 SW10      29.92F HX  91
BRANSON        MOSUNNY   90  63  40 W5        29.95F HX  90
JOPLIN         SUNNY     92  59  33 SW15G21   29.92S HX  91
WEST PLAINS    MOSUNNY   88  66  48 SW5       29.95F HX  90

$$

IAZ060-094-KSZ022-034>040-054-083-096-NEZ052-066-093-030000-
...KANSAS...SOUTHEAST NEBRASKA AND IOWA...

CITY           SKY/WX    TMP DP  RH WIND       PRES   REMARKS
TOPEKA         SUNNY     92  70  48 SW8       29.84F HX  97
MANHATTAN      SUNNY     95  67  39 SW12      29.83F HX  99
EMPORIA        SUNNY     90  70  51 SW12      29.88F HX  95
CHANUTE        SUNNY     91  63  39 SW12G21   29.89F HX  92
WICHITA        MOSUNNY   90  68  48 S9        29.88F HX  94
OMAHA          MOSUNNY   91  76  61 N14       29.78S HX 103
LINCOLN        MOSUNNY   92  73  53 SW10      29.81F HX 100
FALLS CITY     SUNNY     89  74  60 SW9       29.82F HX  98
LAMONI         SUNNY     88  75  65 SW17      29.76F HX  97
DES MOINES     PTSUNNY   79  65  62 SW23G39   29.77R THUNDER

$$



USA.gov is the U.S. government's official web portal to all federal, state and local government web resources and services.